Regional Weather Roundup
Issued by NWS Sterling, VA

Home | Current Version | Previous Version | Graphics & Text | Print | Product List | Glossary On
Versions: 1 2 3 4 5 6 7 8 9 10 11 12 13 14 15 16 17 18 19 20 21 22 23 24 25 26 27 28 29 30 31 32 33 34 35 36 37 38 39 40 41 42 43 44 45 46 47 48 49 50
000
ASUS41 KLWX 012010
RWRLWX

REGIONAL WEATHER ROUNDUP
NATIONAL WEATHER SERVICE BALTIMORE MD/WASHINGTON DC
400 PM EDT WED OCT 01 2014

Note: "FAIR" indicates few or no clouds below 12,000 feet
with no significant weather and/or obstructions to visibility.
 TC=TEMPERATURE CELSIUS

 * =Non NWS site. Station does not report precipitation (e.g. rain,
    snow, etc.), thunder, or fog.

DCZ001-MDZ009-015-VAZ040>042-051-053>054-012100-
WASHINGTON METRO

CITY           SKY/WX    TMP DP  RH WIND       PRES   REMARKS
WASHINGTON NAT MOSUNNY   75  59  57 NE6       30.01F
DULLES         PTSUNNY   71  59  65 E5        30.01F
ANDREWS AFB    MOSUNNY   72  59  65 VRB1      30.01F
QUANTICO       MOSUNNY   73  59  61 N8        30.01F
COLLEGE PARK*  MOSUNNY   73  61  64 N5        30.01F
LEESBURG*      PTSUNNY   72  63  73 NE5       30.03S
GAITHERSBURG*  PTSUNNY   70  61  73 N3        30.06S

$$

MDZ006>007-011-014-012100-
BALTIMORE METRO

CITY           SKY/WX    TMP DP  RH WIND       PRES   REMARKS
BWI AIRPORT    PTSUNNY   72  58  61 VRB6      30.01S
MD SCIENCE CTR   N/A     72  57  59 MISG      30.01F
MARTIN STATE   MOSUNNY   73  64  73 SE5       30.02S
ANNAPOLIS      MOSUNNY   72  58  61 NW5       30.01S
FORT MEADE*    PTSUNNY   72  59  64 CALM      30.03F

$$

MDZ012-015-019>023-012100-
MARYLAND EASTERN SHORE

CITY           SKY/WX    TMP DP  RH WIND       PRES   REMARKS
OCEAN CITY     CLOUDY    69  60  73 NE12      29.99S
SALISBURY      MOSUNNY   76  59  55 N9        29.99S
BAY BRIDGE AP*   N/A     72  57  60 NW6       30.01S
CAMBRIDGE*     MOSUNNY   73  59  60 NW3       29.99F
EASTON*        PTSUNNY   73  63  68 NE6       30.04F

$$

MDZ017>025-012100-
SOUTHERN MARYLAND

CITY           SKY/WX    TMP DP  RH WIND       PRES   REMARKS
PATUXENT RIVER MOSUNNY   73  60  63 N9        30.00F
ST INIGOES     MOSUNNY   73  57  57 NE7       29.99F
LEONARDTOWN*   SUNNY     72  59  64 NE3       30.02S

$$

MDZ003>005-012100-
NORTH CENTRAL MARYLAND

CITY           SKY/WX    TMP DP  RH WIND       PRES   REMARKS
FREDERICK*     CLOUDY    72  64  78 VRB5      30.05F
HAGERSTOWN APT PTSUNNY   68  59  73 E6        30.03F
WESTMINSTER*   MOSUNNY   70  63  78 NW3       30.04S

$$

MDZ501>502-012100-
WESTERN MARYLAND

CITY           SKY/WX    TMP DP  RH WIND       PRES   REMARKS
OAKLAND*       MOSUNNY   63  55  77 E5        30.06S
CUMBERLAND*    SUNNY     72  59  64 SE5       30.05S

$$

VAZ025>031-012100-
SHENANDOAH VALLEY

CITY           SKY/WX    TMP DP  RH WIND       PRES   REMARKS
WINCHESTER*    MOSUNNY   70  61  73 E6        30.02F
STAUNTON*      CLOUDY    73  57  56 SE6       30.02S

$$

WVZ021-048>050-054>055-012100-
EASTERN WEST VIRGINIA PANHANDLE

CITY           SKY/WX    TMP DP  RH WIND       PRES   REMARKS
MARTINSBURG    MOSUNNY   71  58  63 NE3       30.03F
PETERSBURG*    CLOUDY   N/A N/A N/A N3        30.02F

$$

VAZ036>039-050-012100-
CENTRAL FOOTHILLS

CITY           SKY/WX    TMP DP  RH WIND       PRES   REMARKS
CHARLOTTESVILL CLOUDY    73  61  65 NE5       30.00F
ORANGE*        CLOUDY    72  61  68 CALM      30.02S

$$

VAZ055>057-012100-
NORTH AND CENTRAL PIEDMONT

CITY           SKY/WX    TMP DP  RH WIND       PRES   REMARKS
FREDERICKSBRG* MOSUNNY   75  60  60 N3        29.99S
STAFFORD*      CLOUDY    74  62  64 E6        30.05S

$$

NCZ024-NYZ072-PAZ021-071-VAZ022-071-012100-
OTHER REGIONAL OBSERVATIONS

CITY           SKY/WX    TMP DP  RH WIND       PRES   REMARKS
NEW YORK CITY  CLOUDY    63  59  87 N7        30.06S FOG
PHILADELPHIA   PTSUNNY   71  57  61 NE9       30.01S
PITTSBURGH     PTSUNNY   63  56  78 CALM      30.03S
ROANOKE        PTSUNNY   74  61  63 SE10      30.01F
RICHMOND       PTSUNNY   77  61  57 E6        29.98S
RALEIGH        PTSUNNY   78  61  55 CALM      30.00S

$$

ANZ530>537-012100-
MARINE OBSERVATIONS

STATION/POSITION TIME  TEMP    WIND        PRES
                       AIR SEA DIR/SP/G
                 (UTC) (F)     (DEG/KT/KT) (MB)
THOMAS PT LIGHT  2000   69 72   20/  6/  7 1017.2F
BALT KEY BRIDGE  2000   69     140/  5/  6 1016.1F
COVE POINT       2000   68     350/ 10/ 11 1015.9F
LEWISETTA        2000   72 72   60/  4/  6 1015.4F
SOLOMONS ISLAND  2000      73                N/A
PINEY POINT      2000           70/  4/  6   N/A

$$




USA.gov is the U.S. government's official web portal to all federal, state and local government web resources and services.